Date,TemperatureHighF,TemperatureAvgF,TemperatureLowF,DewpointHighF,DewpointAvgF,DewpointLowF,HumidityHigh,HumidityAvg,HumidityLow,PressureMaxIn,PressureMinIn,WindSpeedMaxMPH,WindSpeedAvgMPH,GustSpeedMaxMPH,PrecipitationSumIn
2013-2-1,82.9,62.6,50.2,33.9,28.1,24.4,43,29,14,29.03,28.97,10,4,10,0.00
2013-2-2,74.1,64.3,56.3,37.8,29.8,25.6,39,28,18,29.03,28.97,7,2,7,0.00
2013-2-3,79.9,64.2,56.3,45.3,35.6,28.4,64,37,17,29.00,28.85,11,3,11,0.00
2013-2-4,80.8,61.7,51.1,46.9,34.6,27.4,78,39,17,28.94,28.82,12,4,12,0.00
2013-2-5,65.3,55.0,48.9,48.2,43.1,35.5,86,66,33,28.94,28.82,13,5,13,0.00
2013-2-6,70.5,57.2,50.4,45.4,39.0,29.3,75,54,23,28.94,28.82,15,6,15,0.00
2013-2-7,69.8,54.2,45.1,41.2,37.3,32.0,75,55,25,28.97,28.82,17,7,17,0.00
2013-2-8,52.2,45.6,39.9,43.9,35.4,28.1,80,68,41,28.82,28.70,17,7,17,0.31
2013-2-9,52.3,46.1,37.8,34.5,27.7,20.8,79,52,30,28.91,28.73,10,4,10,0.00
2013-2-10,55.9,48.5,39.9,33.7,28.6,22.9,67,47,29,28.91,28.82,9,4,10,0.00
2013-2-11,64.9,50.9,41.5,34.9,23.0,10.3,73,38,18,29.03,28.85,22,5,22,0.00
2013-2-12,68.9,52.0,40.6,26.7,16.4,8.1,38,25,17,29.15,29.03,15,5,15,0.00
2013-2-13,75.2,55.9,42.8,28.1,22.8,19.6,44,29,16,29.06,28.94,13,5,13,0.00
2013-2-14,76.8,62.4,47.3,27.2,24.0,20.1,45,25,15,29.00,28.88,29,8,29,0.00
2013-2-15,81.3,69.9,59.5,28.6,22.6,17.3,19,17,14,29.06,28.94,31,10,31,0.00
2013-2-16,81.3,64.8,51.1,28.3,19.7,9.7,21,18,14,29.00,28.79,15,4,15,0.00
2013-2-17,76.6,58.6,47.3,43.0,23.0,11.8,70,28,15,28.82,28.73,15,4,15,0.00
2013-2-18,66.4,54.2,48.7,42.2,36.8,25.5,75,55,24,28.85,28.73,13,4,13,0.00
2013-2-19,55.4,49.6,42.6,42.7,35.0,28.0,89,58,36,28.76,28.50,13,6,13,0.08
2013-2-20,58.6,47.9,39.2,41.3,28.2,19.9,90,51,24,28.79,28.47,14,4,14,0.00
2013-2-21,61.5,50.6,43.5,30.3,24.6,13.5,55,38,19,28.88,28.79,16,4,16,0.00
2013-2-22,72.9,53.9,41.4,27.3,22.2,16.7,44,30,16,29.00,28.88,15,4,15,0.00
2013-2-23,72.7,55.8,43.3,39.2,26.8,13.8,65,36,16,28.97,28.70,30,5,30,0.00
2013-2-24,63.1,56.0,49.1,19.6,14.2,8.6,21,19,17,29.00,28.79,45,18,48,0.00
2013-2-25,76.5,57.0,42.8,25.5,16.6,5.6,30,21,15,29.03,28.88,15,5,15,0.00
2013-2-26,81.1,60.8,41.7,28.6,21.8,17.8,43,24,14,28.91,28.79,20,6,20,0.00
2013-2-27,75.2,63.9,51.8,24.4,19.4,9.7,21,18,15,29.06,28.91,32,10,32,0.00
2013-2-28,86.5,66.0,51.3,29.9,20.1,9.7,21,17,13,29.12,29.06,22,6,232,0.00